Regional Weather Roundup
Issued by NWS Huntsville, AL

Home | Current Version | Previous Version | Text Only | Print | Product List | Glossary On
Versions: 1 2 3 4 5 6 7 8 9 10 11 12 13 14 15 16 17 18 19 20 21 22 23 24 25 26 27 28 29 30 31 32 33 34 35 36 37 38 39 40 41 42 43 44 45 46 47 48 49 50
000
ASUS44 KHUN 242010
RWRHUN

WEATHER ROUNDUP FOR THE TENNESSEE VALLEY
NATIONAL WEATHER SERVICE HUNTSVILLE AL
300 PM CDT FRI MAR 24 2017

ALZ001>004-242100-
NORTHWEST ALABAMA

CITY           SKY/WX    TMP DP  RH WIND       PRES   REMARKS
COURTLAND HCN    N/A     73 N/A N/A S14         N/A
RUSSELLVILLE     N/A     73 N/A N/A MISG        N/A
SHOALS AIRPORT CLOUDY    75  53  46 S12       30.22F
SHOALS TVA RES   N/A     73 N/A N/A MISG        N/A
$$

ALZ005>007-016-242100-
NORTH CENTRAL ALABAMA

CITY           SKY/WX    TMP DP  RH WIND       PRES   REMARKS
CULLMAN AG STN   N/A     73 N/A N/A S8          N/A
DECATUR AP     PTSUNNY   72  57  59 S16       30.24F
HUNTSVILLE AP  PTSUNNY   76  55  48 S16G24    30.23F
MERIDIANVILLE  CLOUDY    72  50  46 SE10G16   30.25F
REDSTONE ARSN  PTSUNNY   75  55  49 S12       30.23F
VINEMONT AP    FAIR      75  52  45 SE9G16    30.27F
$$

ALZ008>010-242100-
NORTHEAST ALABAMA

CITY           SKY/WX    TMP DP  RH WIND       PRES   REMARKS
ALBERTVILLE    PTSUNNY   70  59  68 SE8G17    30.27F
FORT PAYNE     MOSUNNY   70  45  40 S5        30.29F
SCOTTSBORO AP  CLOUDY    70  52  52 S7G18     30.28F
SCOTTSBORO HCN   N/A     72 N/A N/A MISG        N/A
VALLEY HEAD      N/A     68 N/A N/A MISG        N/A
$$

TNZ076-096-097-242100-
SOUTHEASTERN MIDDLE TENNESSEE

CITY           SKY/WX    TMP DP  RH WIND       PRES   REMARKS
TULLAHOMA      MOSUNNY   72  48  43 S14       30.26F
WINCHESTER     MOSUNNY   72  54  53 S17       30.26F
$$

...SURROUNDING SITES...

CITY           SKY/WX    TMP DP  RH WIND       PRES   REMARKS
ATLANTA        PTSUNNY   72  48  42 SE12      30.34F
ANNISTON       MOSUNNY   76  52  43 SE9       30.28F
BIRMINGHAM     CLOUDY    74  53  48 S13G22    30.28F
CHATTANOOGA    PTSUNNY   70  49  47 S13G21    30.31F
DALTON         CLOUDY    68  50  52 S6        30.32F
GADSDEN        CLOUDY    75  53  46 SE8       30.28F
GOLDEN TRNGL   CLOUDY    73  55  53 S21G28    30.18F
HALEYVILLE     CLOUDY    73  55  53 S15G21    30.25F
JACKSON TN     CLOUDY    73  57  57 S12G24    30.16F
MEMPHIS        CLOUDY    76  58  53 S18G26    30.10F
NASHVILLE      CLOUDY    74  53  48 S14G22    30.22F
OXFORD MS      FAIR      73  55  53 S15G23    30.18F
ROME           PTSUNNY   72  50  45 S7        30.30F
SAVANNAH       CLOUDY    72  57  60 S12G20    30.20F
TUPELO         CLOUDY    73  57  57 S21G26    30.20F
TUSCALOOSA     CLOUDY    74  55  51 S16       30.23F
$$

...GULF COAST WEATHER...

CITY           SKY/WX    TMP DP  RH WIND       PRES   REMARKS
GULFPORT       CLOUDY    74  66  76 SE17      30.22F
PASCAGOULA     CLOUDY    74  63  68 SE15G23   30.24F
MOBILE         CLOUDY    71  61  70 SE17      30.26F
GULF SHORES    CLOUDY    70  65  85 E17G26    30.26F
PENSACOLA      CLOUDY    73  63  70 E15       30.26F
DESTIN         SUNNY     75  63  66 SE14      30.27F
PANAMA CITY    MOSUNNY   76  57  51 SE16      30.27F
APPALACHICOLA  SUNNY     72  61  68 SE14      30.29F
$$




USA.gov is the U.S. government's official web portal to all federal, state and local government web resources and services.